Regional Weather Roundup
Issued by NWS Midland/Odessa, TX

Home | Current Version | Previous Version | Text Only | Print | Product List | Glossary On
Versions: 1 2 3 4 5 6 7 8 9 10 11 12 13 14 15 16 17 18 19 20 21 22 23 24 25 26 27 28 29 30 31 32 33 34 35 36 37 38 39 40 41 42 43 44 45 46 47 48 49 50
000
ASUS44 KMAF 090610
RWRMAF
MIDLAND AREA WEATHER ROUNDUP
NATIONAL WEATHER SERVICE MIDLAND TX
1200 AM CST TUE FEB 09 2016

...IN SOUTHWEST TEXAS AND SOUTHEAST NEW MEXICO...

CITY           SKY/WX    TMP DP  RH WIND       PRES   REMARKS
ALPINE         CLOUDY    29  16  56 CALM      30.46R
ANDREWS        FAIR      38  15  39 W6        30.41F WCI  33
ARTESIA        CLOUDY    32  14  47 SW6       30.44R WCI  26
BIG SPRING     CLEAR     30  15  53 CALM      30.43R
CARLSBAD       CLOUDY    29  15  56 W6        30.42S WCI  23
DRYDEN           N/A     41  15  35 NW7       30.39S WCI  36
FORT STOCKTON  CLOUDY    37  19  48 S8        30.42S WCI  31
GUAD PASS      CLOUDY    35  11  36 NE22      30.40S WCI  23
HOBBS          CLOUDY    32  14  47 W8        30.42S WCI  25
MARFA          CLOUDY    23  13  65 N9        30.42R WCI  13
MIDLAND AIRPK  CLEAR     41  17  37 W6        30.42R WCI  37
MIDLAND INTL   CLEAR     35  19  52 W9        30.41S WCI  28
ODESSA         CLEAR     38  16  40 W6        30.42S WCI  33
PECOS          CLOUDY    30  17  56 NW3       30.44S
PRESIDIO       FAIR      47  11  23 N7        30.38R
SEMINOLE       CLOUDY    34  17  50 W6        30.41S WCI  28
SNYDER           N/A     39  20  46 NW7       30.39F WCI  34
WINK           CLOUDY    32  14  47 N6        30.42S WCI  26
$$
...OTHER STATIONS IN TEXAS...

CITY           SKY/WX    TMP DP  RH WIND       PRES   REMARKS
ABILENE        PTCLDY    37  19  48 W6        30.36S WCI  32
AMARILLO       CLOUDY    29  19  66 W7        30.36F WCI  22
AUSTIN         CLEAR     41  23  48 W7        30.34F WCI  36
BROWNSVILLE    CLOUDY    48  42  80 CALM      30.39S
CORPUS CHRISTI MOCLDY    47  23  38 W3        30.36S
DALLAS FTW     CLEAR     43   8  23 N13       30.28S WCI  36
DEL RIO        PTCLDY    40  27  59 CALM      30.39S
EL PASO        CLEAR     44  14  29 NE6       30.35F
HOUSTON INT    PTCLDY    45  16  31 W6        30.30R
LUBBOCK        CLOUDY    30  18  60 W7        30.38F WCI  23
SAN ANGELO     CLEAR     37  17  44 W9        30.39R WCI  30
SAN ANTONIO    CLEAR     40  25  55 NW7       30.36S WCI  35
WACO           CLEAR     37  17  44 W10       30.32R WCI  30
WICHITA FALLS  NOT AVBL
$$
...OTHER LOCATIONS IN NEW MEXICO...

CITY           SKY/WX    TMP DP  RH WIND       PRES   REMARKS
ALAMAGORDO     CLOUDY    37  14  38 N7        30.38R WCI  32
ALBUQUERQUE    CLOUDY    36  21  54 CALM      30.40S
CANNON AFB     CLOUDY    26  14  60 N6        30.40S WCI  20
CLOVIS         CLOUDY    27  16  63 N7        30.41S WCI  19
HOLLOMAN AFB   CLOUDY    33  11  40 E2        30.37R
ROSWELL        CLOUDY    30  15  53 W7        30.43R WCI  23
RUIDOSO          N/A     32  14  47 S10       30.45R WCI  24
SANTA FE       CLOUDY    28  19  69 N5        30.40S WCI  23
TRUTH OR CONSE CLEAR     40  15  36 W7        30.37R WCI  35
TUCUMCARI      CLOUDY    30  16  56 W6        30.40R WCI  24
$$



USA.gov is the U.S. government's official web portal to all federal, state and local government web resources and services.